AIQ637 VVDN-VTBD

Flight info

Callsign AIQ637
Flight time 1h 17m
Altitude 32000
Route TANNA A1 UBL Y20 UBLOD ENDUU3A
Aircraft A320/M-SDE3FGHIRWY/LB1

Departure

Time 2026-04-21 15:47
Airport Da Nang International Airport (VVDN)

Arrival

Time 2026-04-21 17:04
Airport Don Mueang International Airport (VTBD)
Time Latitude Longitude Altitude Speed Heading
2026-04-21 15:23 16.05227 108.20210 32 ft 0 kts 83°
2026-04-21 15:33 16.05225 108.20198 31 ft 2 kts 83°
2026-04-21 15:33 16.05223 108.20181 30 ft 2 kts 83°
2026-04-21 15:33 16.05221 108.20164 30 ft 2 kts 83°
2026-04-21 15:34 16.05219 108.20147 32 ft 2 kts 92°
2026-04-21 15:34 16.05222 108.20131 32 ft 2 kts 122°
2026-04-21 15:34 16.05232 108.20118 31 ft 2 kts 144°
2026-04-21 15:34 16.05247 108.20110 32 ft 2 kts 171°
2026-04-21 15:35 16.05250 108.20109 32 ft 0 kts 172°
2026-04-21 15:38 16.05245 108.20110 32 ft 2 kts 172°
2026-04-21 15:38 16.05222 108.20113 32 ft 0 kts 172°
2026-04-21 15:39 16.05180 108.20119 32 ft 10 kts 172°
2026-04-21 15:39 16.05107 108.20130 31 ft 10 kts 172°
2026-04-21 15:39 16.05053 108.20138 32 ft 7 kts 172°
2026-04-21 15:39 16.05008 108.20144 32 ft 6 kts 172°
2026-04-21 15:40 16.04965 108.20151 32 ft 6 kts 172°
2026-04-21 15:40 16.04924 108.20127 32 ft 10 kts 239°
2026-04-21 15:40 16.04850 108.20111 32 ft 14 kts 171°
2026-04-21 15:40 16.04744 108.20126 33 ft 16 kts 172°
2026-04-21 15:41 16.04709 108.20132 33 ft 15 kts 172°
2026-04-21 15:41 16.04565 108.20153 33 ft 10 kts 172°
2026-04-21 15:41 16.04497 108.20163 33 ft 9 kts 172°
2026-04-21 15:41 16.04440 108.20171 33 ft 7 kts 172°
2026-04-21 15:42 16.04395 108.20178 33 ft 5 kts 172°
2026-04-21 15:42 16.04364 108.20183 34 ft 4 kts 172°
2026-04-21 15:42 16.04338 108.20187 34 ft 6 kts 172°
2026-04-21 15:42 16.04286 108.20194 34 ft 10 kts 173°
2026-04-21 15:43 16.04187 108.20209 35 ft 18 kts 172°
2026-04-21 15:43 16.04054 108.20226 35 ft 20 kts 173°
2026-04-21 15:43 16.03921 108.20246 36 ft 19 kts 172°
2026-04-21 15:43 16.03802 108.20263 36 ft 17 kts 172°
2026-04-21 15:44 16.03680 108.20280 36 ft 18 kts 173°
2026-04-21 15:44 16.03550 108.20300 36 ft 20 kts 171°
2026-04-21 15:44 16.03410 108.20320 36 ft 21 kts 173°
2026-04-21 15:44 16.03259 108.20340 35 ft 23 kts 171°
2026-04-21 15:45 16.03100 108.20365 36 ft 24 kts 172°
2026-04-21 15:45 16.02960 108.20355 36 ft 13 kts 213°
2026-04-21 15:45 16.02949 108.20346 36 ft 0 kts 223°
2026-04-21 15:46 16.02932 108.20318 35 ft 10 kts 244°
2026-04-21 15:46 16.02971 108.20241 35 ft 18 kts 343°
2026-04-21 15:46 16.03249 108.20200 36 ft 75 kts 352°
2026-04-21 15:47 16.03979 108.20094 35 ft 135 kts 352°
2026-04-21 15:47 16.05075 108.19940 48 ft 180 kts 354°
2026-04-21 15:47 16.06287 108.19797 759 ft 171 kts 356°
2026-04-21 15:47 16.07506 108.19725 1303 ft 179 kts 358°
2026-04-21 15:48 16.08760 108.19689 1855 ft 186 kts 359°
2026-04-21 15:48 16.10131 108.19659 2137 ft 208 kts 359°
2026-04-21 15:48 16.11671 108.19625 2363 ft 233 kts 358°
2026-04-21 15:48 16.13375 108.19582 2680 ft 257 kts 358°
2026-04-21 15:49 16.14593 108.19558 2948 ft 270 kts
2026-04-21 15:49 16.16930 108.20481 3851 ft 278 kts 46°
2026-04-21 15:49 16.17863 108.22066 4559 ft 278 kts 75°
2026-04-21 15:49 16.18136 108.24056 5319 ft 280 kts 90°
2026-04-21 15:50 16.18115 108.25402 5833 ft 282 kts 94°
2026-04-21 15:50 16.17977 108.27450 6578 ft 286 kts 95°
2026-04-21 15:50 16.17828 108.29524 7306 ft 289 kts 94°
2026-04-21 15:50 16.17721 108.31619 8048 ft 291 kts 92°
2026-04-21 15:51 16.17668 108.33735 8795 ft 294 kts 91°
2026-04-21 15:51 16.17464 108.35851 9518 ft 296 kts 108°
2026-04-21 15:51 16.16400 108.37672 10167 ft 298 kts 137°
2026-04-21 15:51 16.14605 108.38721 10777 ft 301 kts 168°
2026-04-21 15:52 16.12476 108.38939 11059 ft 319 kts 179°
2026-04-21 15:52 16.10182 108.38988 11226 ft 339 kts 180°
2026-04-21 15:52 16.07790 108.38991 11709 ft 347 kts 181°
2026-04-21 15:52 16.05356 108.38983 12309 ft 352 kts 181°
2026-04-21 15:53 16.02895 108.38986 12924 ft 355 kts 180°
2026-04-21 15:53 16.00411 108.39003 13528 ft 359 kts 180°
2026-04-21 15:53 15.97903 108.39024 14082 ft 363 kts 181°
2026-04-21 15:53 15.95410 108.38615 14584 ft 365 kts 201°
2026-04-21 15:54 15.93223 108.37303 15091 ft 366 kts 223°
2026-04-21 15:54 15.91673 108.35269 15578 ft 366 kts 244°
2026-04-21 15:54 15.90928 108.32750 16088 ft 368 kts 265°
2026-04-21 15:54 15.90849 108.30086 16606 ft 370 kts 270°
2026-04-21 15:55 15.90834 108.27399 17122 ft 374 kts 270°
2026-04-21 15:55 15.90827 108.24690 17635 ft 377 kts 270°
2026-04-21 15:55 15.90819 108.21958 18142 ft 380 kts 270°
2026-04-21 15:55 15.90807 108.19198 18574 ft 383 kts 270°
2026-04-21 15:56 15.90791 108.16419 19005 ft 387 kts 270°
2026-04-21 15:56 15.90771 108.13619 19430 ft 390 kts 270°
2026-04-21 15:56 15.90747 108.10790 19856 ft 393 kts 270°
2026-04-21 15:56 15.90723 108.07940 20277 ft 396 kts 270°
2026-04-21 15:57 15.90700 108.05069 20689 ft 400 kts 270°
2026-04-21 15:57 15.90678 108.02170 21114 ft 403 kts 270°
2026-04-21 15:57 15.90653 107.99253 21525 ft 406 kts 270°
2026-04-21 15:57 15.90625 107.96303 21934 ft 409 kts 270°
2026-04-21 15:58 15.90594 107.93341 22350 ft 412 kts 270°
2026-04-21 15:58 15.90563 107.90352 22765 ft 416 kts 270°
2026-04-21 15:58 15.90534 107.87337 23154 ft 419 kts 270°
2026-04-21 15:58 15.90505 107.84301 23526 ft 422 kts 270°
2026-04-21 15:59 15.90477 107.81246 23855 ft 424 kts 270°
2026-04-21 15:59 15.90448 107.78171 24208 ft 426 kts 270°
2026-04-21 15:59 15.90418 107.75093 24557 ft 427 kts 270°
2026-04-21 15:59 15.90388 107.71999 24899 ft 429 kts 270°
2026-04-21 16:00 15.90363 107.68896 25243 ft 431 kts 270°
2026-04-21 16:00 15.90149 107.65784 25583 ft 433 kts 262°
2026-04-21 16:00 15.89434 107.62738 25905 ft 436 kts 254°
2026-04-21 16:00 15.88555 107.59713 26232 ft 438 kts 254°
2026-04-21 16:01 15.87679 107.56678 26549 ft 439 kts 255°
2026-04-21 16:01 15.86807 107.53632 26840 ft 441 kts 255°
2026-04-21 16:01 15.85933 107.50574 27139 ft 443 kts 255°
2026-04-21 16:01 15.85056 107.47503 27440 ft 444 kts 255°
2026-04-21 16:02 15.84177 107.44421 27757 ft 446 kts 255°
2026-04-21 16:02 15.83304 107.41371 28058 ft 447 kts 255°
2026-04-21 16:02 15.82413 107.38269 28343 ft 449 kts 255°
2026-04-21 16:02 15.81519 107.35159 28627 ft 451 kts 255°
2026-04-21 16:03 15.80621 107.32031 28895 ft 453 kts 255°
2026-04-21 16:03 15.79717 107.28888 29167 ft 455 kts 255°
2026-04-21 16:03 15.78811 107.25741 29439 ft 456 kts 255°
2026-04-21 16:03 15.77900 107.22581 29693 ft 458 kts 255°
2026-04-21 16:04 15.76983 107.19406 29945 ft 460 kts 255°
2026-04-21 16:04 15.76106 107.16212 30162 ft 461 kts 257°
2026-04-21 16:04 15.75337 107.12981 30370 ft 462 kts 259°
2026-04-21 16:04 15.74651 107.09726 30571 ft 463 kts 260°
2026-04-21 16:05 15.74001 107.06446 30763 ft 464 kts 261°
2026-04-21 16:05 15.73354 107.03158 30947 ft 466 kts 261°
2026-04-21 16:05 15.72689 106.99867 31136 ft 467 kts 260°
2026-04-21 16:05 15.71998 106.96575 31393 ft 466 kts 260°
2026-04-21 16:06 15.71291 106.93294 31663 ft 466 kts 259°
2026-04-21 16:06 15.70573 106.90017 31939 ft 465 kts 259°
2026-04-21 16:06 15.69851 106.86753 32202 ft 464 kts 259°
2026-04-21 16:06 15.69131 106.83491 32473 ft 464 kts 259°
2026-04-21 16:07 15.68414 106.80231 32724 ft 463 kts 259°
2026-04-21 16:07 15.67702 106.76973 32997 ft 462 kts 260°
2026-04-21 16:07 15.66995 106.73722 33268 ft 461 kts 260°
2026-04-21 16:07 15.66291 106.70480 33546 ft 461 kts 260°
2026-04-21 16:08 15.64881 106.64013 33879 ft 455 kts 260°
2026-04-21 16:08 15.64184 106.60828 33894 ft 450 kts 260°
2026-04-21 16:09 15.62804 106.54525 33883 ft 447 kts 260°
2026-04-21 16:09 15.61435 106.48242 33884 ft 446 kts 260°
2026-04-21 16:10 15.60061 106.41961 33888 ft 446 kts 260°
2026-04-21 16:10 15.58684 106.35684 33884 ft 447 kts 260°
2026-04-21 16:11 15.57299 106.29403 33884 ft 446 kts 260°
2026-04-21 16:11 15.55917 106.23130 33882 ft 446 kts 260°
2026-04-21 16:12 15.54770 106.17914 33873 ft 446 kts 260°
2026-04-21 16:12 15.53157 106.10589 33872 ft 446 kts 260°
2026-04-21 16:13 15.51771 106.04319 33864 ft 446 kts 260°
2026-04-21 16:13 15.50381 105.98060 33855 ft 446 kts 259°
2026-04-21 16:14 15.48985 105.91804 33850 ft 446 kts 259°
2026-04-21 16:14 15.47595 105.85544 33848 ft 446 kts 260°
2026-04-21 16:15 15.46214 105.79276 33839 ft 446 kts 260°
2026-04-21 16:15 15.44822 105.73014 33844 ft 446 kts 259°
2026-04-21 16:16 15.43417 105.66754 33838 ft 446 kts 259°
2026-04-21 16:16 15.42025 105.60538 33840 ft 446 kts 259°
2026-04-21 16:17 15.40604 105.54285 33835 ft 446 kts 259°
2026-04-21 16:17 15.39125 105.48048 33836 ft 446 kts 259°
2026-04-21 16:18 15.37632 105.41811 33835 ft 446 kts 259°
2026-04-21 16:18 15.36149 105.35562 33833 ft 446 kts 259°
2026-04-21 16:19 15.34678 105.29324 33837 ft 445 kts 259°
2026-04-21 16:19 15.33206 105.23091 33836 ft 445 kts 259°
2026-04-21 16:20 15.31730 105.16856 33842 ft 446 kts 259°
2026-04-21 16:20 15.30244 105.10625 33847 ft 446 kts 258°
2026-04-21 16:21 15.28760 105.04397 33847 ft 445 kts 259°
2026-04-21 16:21 15.27279 104.98169 33852 ft 445 kts 259°
2026-04-21 16:22 15.25799 104.91939 33844 ft 446 kts 258°
2026-04-21 16:22 15.24451 104.85674 33844 ft 445 kts 265°
2026-04-21 16:23 15.23913 104.79301 33847 ft 444 kts 267°
2026-04-21 16:23 15.23402 104.72922 33844 ft 445 kts 267°
2026-04-21 16:24 15.22884 104.66584 33840 ft 445 kts 267°
2026-04-21 16:24 15.22355 104.60157 33836 ft 445 kts 267°
2026-04-21 16:25 15.21828 104.53817 33834 ft 445 kts 267°
2026-04-21 16:25 15.21297 104.47433 33833 ft 445 kts 266°
2026-04-21 16:26 15.20763 104.41057 33833 ft 444 kts 266°
2026-04-21 16:26 15.20226 104.34683 33833 ft 444 kts 266°
2026-04-21 16:27 15.19691 104.28317 33832 ft 444 kts 266°
2026-04-21 16:27 15.19160 104.21947 33831 ft 444 kts 266°
2026-04-21 16:28 15.18620 104.15578 33836 ft 444 kts 266°
2026-04-21 16:28 15.18079 104.09205 33838 ft 444 kts 266°
2026-04-21 16:29 15.17630 104.03913 33839 ft 444 kts 266°
2026-04-21 16:29 15.16998 103.96468 33846 ft 444 kts 266°
2026-04-21 16:30 15.16453 103.90103 33852 ft 444 kts 266°
2026-04-21 16:30 15.15903 103.83740 33855 ft 444 kts 266°
2026-04-21 16:31 15.15335 103.77382 33855 ft 444 kts 265°
2026-04-21 16:31 15.14517 103.71089 33858 ft 444 kts 263°
2026-04-21 16:32 15.13539 103.64782 33860 ft 444 kts 263°
2026-04-21 16:32 15.12601 103.58474 33860 ft 443 kts 263°
2026-04-21 16:33 15.11717 103.52162 33864 ft 443 kts 263°
2026-04-21 16:33 15.10837 103.45856 33863 ft 443 kts 263°
2026-04-21 16:34 15.09949 103.39549 33867 ft 442 kts 263°
2026-04-21 16:34 15.09055 103.33256 33868 ft 442 kts 263°
2026-04-21 16:35 15.08157 103.26965 33867 ft 442 kts 263°
2026-04-21 16:35 15.07254 103.20677 33870 ft 442 kts 263°
2026-04-21 16:36 15.06353 103.14391 33872 ft 441 kts 263°
2026-04-21 16:36 15.05455 103.08114 33871 ft 441 kts 263°
2026-04-21 16:37 15.04701 103.02901 33874 ft 441 kts 263°
2026-04-21 16:37 15.03641 102.95573 33873 ft 440 kts 263°
2026-04-21 16:38 15.02896 102.90384 33872 ft 440 kts 263°
2026-04-21 16:38 15.01990 102.84123 33870 ft 440 kts 263°
2026-04-21 16:39 15.01086 102.77867 33871 ft 440 kts 263°
2026-04-21 16:39 15.00175 102.71619 33869 ft 439 kts 263°
2026-04-21 16:40 14.99267 102.65379 33868 ft 439 kts 263°
2026-04-21 16:40 14.98361 102.59145 33868 ft 439 kts 263°
2026-04-21 16:41 14.97456 102.52910 33864 ft 438 kts 263°
2026-04-21 16:41 14.96549 102.46681 33867 ft 438 kts 263°
2026-04-21 16:42 14.95636 102.40457 33865 ft 438 kts 263°
2026-04-21 16:42 14.94718 102.34235 33861 ft 437 kts 262°
2026-04-21 16:43 14.93796 102.28018 33860 ft 437 kts 262°
2026-04-21 16:43 14.92889 102.21847 33858 ft 437 kts 262°
2026-04-21 16:44 14.91958 102.15638 33855 ft 437 kts 259°
2026-04-21 16:44 14.89953 102.09627 32942 ft 450 kts 248°
2026-04-21 16:44 14.88711 102.06653 32164 ft 451 kts 248°
2026-04-21 16:45 14.87449 102.03684 31522 ft 450 kts 247°
2026-04-21 16:45 14.86186 102.00735 30931 ft 447 kts 247°
2026-04-21 16:45 14.84935 101.97807 30356 ft 443 kts 247°
2026-04-21 16:45 14.83706 101.94911 29444 ft 437 kts 247°
2026-04-21 16:46 14.82518 101.92090 28972 ft 420 kts 248°
2026-04-21 16:46 14.81360 101.89330 28501 ft 421 kts 248°
2026-04-21 16:46 14.80167 101.86473 28008 ft 445 kts 248°
2026-04-21 16:46 14.78915 101.83479 27507 ft 460 kts 247°
2026-04-21 16:47 14.77635 101.80434 26983 ft 463 kts 247°
2026-04-21 16:47 14.76349 101.77387 26471 ft 462 kts 247°
2026-04-21 16:47 14.75067 101.74355 25953 ft 460 kts 247°
2026-04-21 16:47 14.73792 101.71339 25423 ft 457 kts 247°
2026-04-21 16:48 14.72523 101.68333 24884 ft 455 kts 247°
2026-04-21 16:48 14.71262 101.65346 24325 ft 453 kts 247°
2026-04-21 16:48 14.69980 101.62309 23758 ft 468 kts 247°
2026-04-21 16:48 14.68672 101.59210 23105 ft 472 kts 246°
2026-04-21 16:49 14.67364 101.56114 22501 ft 469 kts 247°
2026-04-21 16:49 14.66051 101.53006 21911 ft 480 kts 247°
2026-04-21 16:49 14.64706 101.49822 21304 ft 484 kts 247°
2026-04-21 16:49 14.63362 101.46640 20706 ft 482 kts 247°
2026-04-21 16:50 14.61985 101.43505 20109 ft 477 kts 242°
2026-04-21 16:50 14.60354 101.40550 19533 ft 472 kts 240°
2026-04-21 16:50 14.58724 101.37698 18970 ft 467 kts 239°
2026-04-21 16:50 14.57058 101.34837 18405 ft 462 kts 239°
2026-04-21 16:51 14.55403 101.32008 17790 ft 458 kts 239°
2026-04-21 16:51 14.53770 101.29207 17233 ft 454 kts 239°
2026-04-21 16:51 14.52159 101.26421 16703 ft 450 kts 240°
2026-04-21 16:51 14.50569 101.23656 16171 ft 446 kts 240°
2026-04-21 16:52 14.48823 101.21029 15605 ft 443 kts 231°
2026-04-21 16:52 14.46885 101.18568 14915 ft 439 kts 231°
2026-04-21 16:52 14.44951 101.16144 14250 ft 435 kts 230°
2026-04-21 16:52 14.43037 101.13759 13614 ft 432 kts 230°
2026-04-21 16:53 14.41115 101.11372 12915 ft 428 kts 230°
2026-04-21 16:53 14.39229 101.09030 12293 ft 422 kts 230°
2026-04-21 16:53 14.37377 101.06727 11994 ft 407 kts 230°
2026-04-21 16:53 14.35643 101.04564 11796 ft 376 kts 230°
2026-04-21 16:54 14.34041 101.02561 11508 ft 351 kts 231°
2026-04-21 16:54 14.32520 101.00659 11063 ft 336 kts 231°
2026-04-21 16:54 14.31065 100.98842 10642 ft 322 kts 231°
2026-04-21 16:54 14.29667 100.97095 10211 ft 311 kts 231°
2026-04-21 16:55 14.28314 100.95407 9829 ft 301 kts 231°
2026-04-21 16:55 14.26979 100.93741 9417 ft 302 kts 231°
2026-04-21 16:55 14.25719 100.92171 9015 ft 302 kts 231°
2026-04-21 16:55 14.24376 100.90496 8586 ft 302 kts 231°
2026-04-21 16:56 14.23057 100.88853 8171 ft 301 kts 231°
2026-04-21 16:56 14.21707 100.87169 7759 ft 300 kts 231°
2026-04-21 16:56 14.20645 100.85843 7428 ft 292 kts 231°
2026-04-21 16:56 14.19367 100.84247 7026 ft 286 kts 231°
2026-04-21 16:57 14.18085 100.82651 6425 ft 286 kts 230°
2026-04-21 16:57 14.16819 100.81077 5781 ft 283 kts 230°
2026-04-21 16:57 14.15590 100.79549 5187 ft 279 kts 229°
2026-04-21 16:57 14.15173 100.79030 4995 ft 277 kts 229°
2026-04-21 16:58 14.14110 100.77707 4061 ft 284 kts 229°
2026-04-21 16:58 14.12836 100.76123 3298 ft 284 kts 228°
2026-04-21 16:59 14.11610 100.74597 3032 ft 266 kts 229°
2026-04-21 16:59 14.10488 100.73196 2988 ft 241 kts 228°
2026-04-21 16:59 14.09473 100.71929 2997 ft 219 kts 228°
2026-04-21 16:59 14.08529 100.70750 3002 ft 210 kts 227°
2026-04-21 17:00 14.07569 100.69669 2999 ft 198 kts 214°
2026-04-21 17:00 14.06407 100.68961 2929 ft 192 kts 207°
2026-04-21 17:00 14.05617 100.68523 2795 ft 191 kts 207°
2026-04-21 17:00 14.04082 100.67665 2458 ft 188 kts 207°
2026-04-21 17:01 14.02955 100.67033 2245 ft 182 kts 206°
2026-04-21 17:01 14.01864 100.66420 2007 ft 176 kts 206°
2026-04-21 17:01 14.00806 100.65826 1767 ft 167 kts 206°
2026-04-21 17:01 13.99850 100.65288 1579 ft 149 kts 206°
2026-04-21 17:02 13.98968 100.64794 1408 ft 141 kts 206°
2026-04-21 17:02 13.98116 100.64316 1234 ft 138 kts 205°
2026-04-21 17:02 13.97279 100.63847 1051 ft 137 kts 204°
2026-04-21 17:02 13.96444 100.63378 879 ft 137 kts 206°
2026-04-21 17:03 13.96161 100.63219 819 ft 136 kts 206°
2026-04-21 17:03 13.95894 100.63068 755 ft 136 kts 207°
2026-04-21 17:03 13.93911 100.61966 316 ft 137 kts 207°
2026-04-21 17:03 13.93081 100.61495 135 ft 136 kts 207°
2026-04-21 17:04 13.92252 100.61027 29 ft 134 kts 207°
2026-04-21 17:04 13.91692 100.60712 15 ft 107 kts 208°
2026-04-21 17:04 13.91191 100.60431 17 ft 57 kts 208°
2026-04-21 17:04 13.90896 100.60266 18 ft 44 kts 208°
2026-04-21 17:05 13.90661 100.60105 18 ft 38 kts 228°
2026-04-21 17:05 13.90609 100.59947 18 ft 19 kts 317°
2026-04-21 17:05 13.90713 100.59974 17 ft 15 kts 28°
2026-04-21 17:05 13.90799 100.60021 17 ft 13 kts 28°
2026-04-21 17:06 13.90879 100.60067 17 ft 15 kts 28°
2026-04-21 17:06 13.90991 100.60130 18 ft 22 kts 28°
2026-04-21 17:06 13.91141 100.60214 17 ft 23 kts 28°
2026-04-21 17:06 13.91285 100.60293 17 ft 24 kts 28°
2026-04-21 17:07 13.91382 100.60348 17 ft 24 kts 28°
2026-04-21 17:07 13.91591 100.60465 18 ft 26 kts 28°
2026-04-21 17:07 13.91746 100.60552 17 ft 20 kts 28°
2026-04-21 17:07 13.91835 100.60586 17 ft 13 kts 345°
2026-04-21 17:08 13.91885 100.60522 17 ft 11 kts 301°
2026-04-21 17:08 13.91920 100.60457 17 ft 10 kts 298°
2026-04-21 17:08 13.91913 100.60399 17 ft 8 kts 227°
2026-04-21 17:08 13.91880 100.60380 17 ft 1 kts 208°
2026-04-21 17:09 13.91877 100.60379 17 ft 0 kts 208°